Location: ????????
(55.6333°N, 37.7000°E)
Time: 04:15:20
(UTC+00:00)

ISS - Pass Details

Date: 19 May 2025
Orbit: 415 x 418 km, 51.6° (Epoch: 19 June)

Event Time Altitude Azimuth Distance (km) Brightness Sun altitude
Rises 20:13:07 0° 273° (W) 2,361 0.3 -12.9°
Reaches altitude 10° 20:15:59 10° 246° (WSW) 1,493 -1.0 -13.0°
Maximum altitude 20:17:45 14° 214° (SW) 1,281 -1.7 -13.0°
Enters shadow 20:17:50 14° 213° (SSW) 1,281 -1.7 -13.0°
